Olbia, Italy

11:13 AM CEST on August 24, 2016 (GMT +0200)
Olbia

Weather History for 16531 - May, 2014

Change the Weather History Date:

Thursday, May 1, 2014

  Actual Average Record
Temperature  
Mean Temperature 64 °F -  
Max Temperature 72 °F 73 °F - ()
Min Temperature 55 °F 52 °F - ()
Degree Days  
Heating Degree Days 2    
Growing Degree Days 14 (Base 50)    
Moisture  
Dew Point 49 °F    
Average Humidity 60    
Maximum Humidity 77    
Minimum Humidity 34    
Precipitation  
Precipitation 0.00 in 0.05 in - ()
Sea Level Pressure  
Sea Level Pressure 29.87 in    
Wind  
Wind Speed 13 mph ()    
Max Wind Speed 21 mph    
Max Gust Speed -    
Visibility 8.1 miles    
Events      
T = Trace of Precipitation, MM = Missing Value Source: Averaged Metar Reports

Daily Weather History Graph

Daily Weather History Graph

Search for Another Location

Airport or City:

Trip Planner

Search our weather history database for the weather conditions in past years. The results will help you decide how hot, cold, wet, or windy it might be!

Date:

Astronomy

May. 01, 2014 Rise Set
Actual Time 6:20 AM CEST 8:18 PM CEST
Civil Twilight 5:50 AM CEST 8:48 PM CEST
Nautical Twilight 5:14 AM CEST 9:24 PM CEST
Astronomical Twilight 4:35 AM CEST 10:04 PM CEST
Moon 7:54 AM CEST (5/1) 10:37 PM CEST (5/1)
Length of Visible Light 14h 57m
Length of Day
13h 57m
Waxing Crescent, 5% of the Moon is Illuminated
May 1
Waxing Crescent
May 7
First Quarter
May 14
Full
May 21
Last Quarter
May 28
New

Hourly Weather History & Observations

Time (CEST) Temp. Dew Point Humidity Pressure Visibility Wind Dir Wind Speed Gust Speed Precip Events Conditions
12:20 AM 57.2 °F 48.2 °F 72% 29.86 in 6.2 mi SW 6.9 mph - N/A   Partly Cloudy
12:50 AM 55.4 °F 48.2 °F 77% 29.86 in 6.2 mi SW 11.5 mph - N/A   Partly Cloudy
1:20 AM 57.2 °F 48.2 °F 72% 29.83 in - SW 13.8 mph - N/A   Clear
1:50 AM 55.4 °F 48.2 °F 77% 29.83 in - SW 11.5 mph - N/A   Clear
2:20 AM 55.4 °F 48.2 °F 77% 29.83 in - SSW 10.4 mph - N/A   Clear
2:50 AM 57.2 °F 48.2 °F 72% 29.83 in - SSW 12.7 mph - N/A   Clear
3:20 AM 57.2 °F 48.2 °F 72% 29.83 in - SW 11.5 mph - N/A   Clear
3:50 AM 57.2 °F 48.2 °F 72% 29.83 in - SW 12.7 mph - N/A   Clear
4:20 AM 57.2 °F 48.2 °F 72% 29.83 in - SSW 10.4 mph - N/A   Clear
4:50 AM 57.2 °F 48.2 °F 72% 29.83 in - SW 13.8 mph - N/A   Clear
5:00 AM 56 °F 48 °F 67% 29.83 in 16 mi SW 12.7 mph - -   Scattered Clouds
5:20 AM 55.4 °F 48.2 °F 77% 29.83 in - SW 12.7 mph - N/A   Clear
5:50 AM 57.2 °F 48.2 °F 72% 29.83 in - SW 17.3 mph - N/A   Clear
6:20 AM 57.2 °F 48.2 °F 72% 29.83 in - SW 16.1 mph - N/A   Clear
6:50 AM 57.2 °F 48.2 °F 72% 29.83 in - SW 15.0 mph - N/A   Clear
7:20 AM 59.0 °F 50.0 °F 72% 29.86 in - SW 15.0 mph - N/A   Clear
7:50 AM 60.8 °F 50.0 °F 68% 29.86 in - SW 13.8 mph - N/A   Clear
8:00 AM 61 °F 50 °F 57% 29.86 in 16 mi WSW 16.1 mph - -   Scattered Clouds
8:20 AM 60.8 °F 50.0 °F 68% 29.86 in - SW 15.0 mph - N/A   Clear
8:50 AM 62.6 °F 50.0 °F 63% 29.86 in - SW 17.3 mph - N/A   Clear
9:20 AM 64.4 °F 50.0 °F 59% 29.89 in - SW 17.3 mph - N/A   Clear
9:50 AM 66.2 °F 48.2 °F 52% 29.89 in - SW 16.1 mph - N/A   Clear
10:20 AM 66.2 °F 50.0 °F 56% 29.89 in - SSW 13.8 mph - N/A   Clear
10:50 AM 68.0 °F 50.0 °F 52% 29.86 in 6.2 mi SW 17.3 mph - N/A   Partly Cloudy
11:00 AM 67 °F 50 °F 44% 29.86 in 16 mi SW 17.3 mph - -   Scattered Clouds
11:20 AM 68.0 °F 50.0 °F 52% 29.89 in 6.2 mi SW 17.3 mph - N/A   Partly Cloudy
11:50 AM 68.0 °F 50.0 °F 52% 29.89 in 6.2 mi SW 15.0 mph - N/A   Partly Cloudy
12:20 PM 69.8 °F 50.0 °F 49% 29.89 in 6.2 mi SW 13.8 mph - N/A   Partly Cloudy
12:50 PM 69.8 °F 50.0 °F 49% 29.86 in 6.2 mi SW 11.5 mph - N/A   Partly Cloudy
1:20 PM 71.6 °F 48.2 °F 43% 29.86 in 6.2 mi WSW 12.7 mph - N/A   Scattered Clouds
1:50 PM 69.8 °F 50.0 °F 49% 29.86 in 6.2 mi SW 15.0 mph - N/A   Scattered Clouds
2:00 PM 71 °F 50 °F 36% 29.86 in 16 mi SW 16.1 mph - -   Partly Cloudy
2:20 PM 69.8 °F 50.0 °F 49% 29.86 in 6.2 mi SW 20.7 mph - N/A   Scattered Clouds
2:50 PM 69.8 °F 48.2 °F 46% 29.86 in 6.2 mi SW 20.7 mph - N/A   Scattered Clouds
3:20 PM 71.6 °F 50.0 °F 46% 29.86 in 6.2 mi SW 18.4 mph - N/A   Scattered Clouds
3:50 PM 71.6 °F 50.0 °F 46% 29.86 in 6.2 mi SW 18.4 mph - N/A   Scattered Clouds
4:20 PM 71.6 °F 50.0 °F 46% 29.86 in 6.2 mi WSW 17.3 mph - N/A   Scattered Clouds
4:50 PM 71.6 °F 48.2 °F 43% 29.86 in 6.2 mi SW 18.4 mph - N/A   Scattered Clouds
5:00 PM 70 °F 48 °F 34% 29.86 in 16 mi SW 18.4 mph - -   Partly Cloudy
5:20 PM 69.8 °F 48.2 °F 46% 29.86 in 6.2 mi SW 17.3 mph - N/A   Scattered Clouds
5:50 PM 68.0 °F 46.4 °F 46% 29.86 in 6.2 mi WSW 19.6 mph - N/A   Scattered Clouds
6:20 PM 66.2 °F 46.4 °F 49% 29.86 in 6.2 mi WSW 17.3 mph - N/A   Scattered Clouds
6:50 PM 64.4 °F 46.4 °F 52% 29.89 in 6.2 mi West 19.6 mph - N/A   Scattered Clouds
7:20 PM 64.4 °F 48.2 °F 56% 29.89 in 6.2 mi WSW 17.3 mph - N/A   Scattered Clouds
7:50 PM 62.6 °F 46.4 °F 55% 29.89 in 6.2 mi WSW 18.4 mph - N/A   Scattered Clouds
8:00 PM 62 °F 46 °F 45% 29.89 in 16 mi WSW 19.6 mph - -   Partly Cloudy
8:20 PM 60.8 °F 46.4 °F 59% 29.89 in 6.2 mi WSW 17.3 mph - N/A   Scattered Clouds
8:50 PM 60.8 °F 48.2 °F 63% 29.89 in 6.2 mi WSW 13.8 mph - N/A   Scattered Clouds
9:20 PM 59.0 °F 48.2 °F 67% 29.92 in 6.2 mi SW 11.5 mph - N/A   Scattered Clouds
9:50 PM 59.0 °F 48.2 °F 67% 29.92 in 6.2 mi SW 10.4 mph - N/A   Scattered Clouds
10:20 PM 59.0 °F 48.2 °F 67% 29.92 in 6.2 mi SW 9.2 mph - N/A   Scattered Clouds
10:50 PM 59.0 °F 50.0 °F 72% 29.92 in 6.2 mi SSW 9.2 mph - N/A   Scattered Clouds
11:00 PM 59 °F 49 °F 62% 29.89 in 16 mi SW 9.2 mph - -   Partly Cloudy
11:20 PM 59.0 °F 50.0 °F 72% 29.89 in 6.2 mi SW 11.5 mph - N/A   Scattered Clouds
11:50 PM 59.0 °F 50.0 °F 72% 29.89 in 6.2 mi SW 11.5 mph - N/A   Scattered Clouds